DW1980 Weather Reports


Display with metric or nautical units.
time (UTC)temp
F
wind
direction
speed
MPH
gust
MPH
rain 1hr
in
rain 24hr
in
rain mn
in
humidity
%
barometer
mb
20260503192336 58 324 5.0 23.0 0.00 0.00 0.00 40 1010.4
20260503191847 58 254 7.0 24.0 0.00 0.00 0.00 42 1010.4
20260503191615 57 265 4.0 15.0 0.00 0.00 0.00 42 1010.4
20260503191543 57 286 7.0 15.0 0.00 0.00 0.00 40 1009.6
20260503191342 57 292 7.0 13.0 0.00 0.00 0.00 41 1010.4
20260503190851 57 304 7.0 12.0 0.00 0.00 0.00 40 1010.6
20260503190343 57 289 4.0 17.0 0.00 0.00 0.00 42 1010.5
20260503190107 56 186 5.0 17.0 0.00 0.00 0.00 42 1010.7
20260503190050 56 299 7.0 17.0 0.00 0.00 0.00 41 1010.0
20260503185849 57 255 9.0 17.0 0.00 0.00 0.00 45 1010.7
20260503185338 56 221 5.0 14.0 0.00 0.00 0.00 42 1010.7
20260503184847 56 273 8.0 15.0 0.00 0.00 0.00 48 1010.8
20260503184611 55 275 5.0 15.0 0.00 0.00 0.00 50 1010.9
20260503184543 54 299 4.0 15.0 0.00 0.00 0.00 45 1010.1
20260503184337 54 319 6.0 15.0 0.00 0.00 0.00 47 1010.7
20260503183847 54 294 6.0 14.0 0.00 0.00 0.00 46 1010.8
20260503183358 55 295 3.0 16.0 0.00 0.00 0.00 46 1010.8
20260503183118 55 355 9.0 19.0 0.00 0.00 0.00 42 1010.9
20260503183044 55 288 6.0 19.0 0.00 0.00 0.00 42 1010.2
20260503182844 56 319 7.0 19.0 0.00 0.00 0.00 46 1010.9
20260503182413 58 325 5.0 15.0 0.00 0.00 0.00 44 1010.9
20260503181841 56 311 7.0 15.0 0.00 0.00 0.00 47 1010.8
20260503181636 55 30 4.0 15.0 0.00 0.00 0.00 47 1010.8
20260503181602 55 310 5.0 15.0 0.00 0.00 0.00 47 1010.1
20260503181352 55 337 5.0 15.0 0.00 0.00 0.00 45 1010.7
20260503180841 55 311 5.0 23.0 0.00 0.00 0.00 45 1010.8
20260503180414 55 240 10.0 23.0 0.00 0.00 0.00 44 1010.7
20260503180118 54 306 5.0 20.0 0.00 0.00 0.00 45 1010.9
20260503180050 54 308 8.0 20.0 0.00 0.00 0.00 46 1010.2
20260503175839 55 276 6.0 20.0 0.00 0.00 0.00 44 1010.9
20260503175350 55 351 8.0 17.0 0.00 0.00 0.00 44 1011.0
20260503174840 56 355 6.0 18.0 0.00 0.00 0.00 44 1010.7
20260503174609 55 28 5.0 18.0 0.00 0.00 0.00 46 1011.0
20260503174546 55 303 6.0 19.0 0.00 0.00 0.00 47 1010.2
20260503174412 54 311 8.0 19.0 0.00 0.00 0.00 46 1010.9
20260503173840 53 27 8.0 19.0 0.00 0.00 0.00 47 1010.8
20260503173349 54 327 10.0 19.0 0.00 0.00 0.00 48 1011.0
20260503173113 54 288 5.0 22.0 0.00 0.00 0.00 54 1011.0
20260503173052 54 315 7.0 22.0 0.00 0.00 0.00 49 1010.5
20260503172343 54 331 7.0 20.0 0.00 0.00 0.00 46 1011.0
20260503171853 53 298 10.0 20.0 0.00 0.00 0.00 45 1011.0
20260503171621 53 290 10.0 19.0 0.00 0.00 0.00 45 1011.2
20260503171542 53 279 7.0 16.0 0.00 0.00 0.00 45 1010.6
20260503171342 54 263 6.0 16.0 0.00 0.00 0.00 44 1011.0
20260503170912 53 283 6.0 16.0 0.00 0.00 0.00 46 1011.0
20260503170403 53 286 7.0 19.0 0.00 0.00 0.00 43 1011.0
20260503170108 53 288 5.0 20.0 0.00 0.00 0.00 43 1011.2
20260503160106 52 315 5.0 14.0 0.00 0.00 0.00 46 1011.2
20260503150850 50 273 6.0 16.0 0.00 0.00 0.00 53 1011.5
20260503150359 50 327 7.0 19.0 0.00 0.00 0.00 53 1011.5
20260503150119 49 281 7.0 19.0 0.00 0.00 0.00 52 1011.6
20260503140103 49 259 8.0 20.0 0.00 0.00 0.00 57 1011.6
20260503131353 47 9 5.0 14.0 0.00 0.00 0.00 60 1011.4
20260503130903 47 305 7.0 15.0 0.00 0.00 0.00 61 1011.5
20260503130354 47 288 9.0 15.0 0.00 0.00 0.00 62 1011.3
20260503130120 46 280 4.0 11.0 0.00 0.00 0.00 62 1011.5
20260503120115 44 294 4.0 12.0 0.00 0.00 0.00 66 1011.4
20260503110411 43 14 4.0 9.0 0.00 0.00 0.00 67 1011.1
20260503110109 43 338 1.0 9.0 0.00 0.00 0.00 67 1011.2
20260503100122 42 279 2.0 6.0 0.00 0.01 0.00 69 1010.7
20260503090352 43 306 2.0 5.0 0.00 0.02 0.00 68 1010.4
20260503090120 43 316 2.0 4.0 0.00 0.02 0.00 68 1010.4
20260503081603 43 355 2.0 6.0 0.00 0.02 0.00 67 1010.7
20260503081543 43 305 2.0 7.0 0.00 0.02 0.00 67 1009.9
20260503081350 44 35 3.0 6.0 0.00 0.02 0.00 67 1010.6
20260503080838 44 325 2.0 8.0 0.00 0.02 0.00 68 1010.6
20260503080348 44 329 2.0 9.0 0.00 0.02 0.00 67 1010.5
20260503080109 43 26 3.0 9.0 0.00 0.02 0.00 67 1010.6
20260503072851 45 323 3.0 8.0 0.00 0.02 0.00 65 1010.6
20260503072339 45 336 3.0 8.0 0.00 0.02 0.00 65 1010.6
20260503071911 45 34 3.0 6.0 0.00 0.02 0.00 64 1010.6
20260503071614 44 5 2.0 6.0 0.00 0.02 0.00 64 1010.7
20260503071541 44 5 3.0 6.0 0.00 0.02 0.00 64 1009.9
20260503071340 45 338 3.0 6.0 0.00 0.02 0.00 64 1010.5
20260503070849 45 5 2.0 10.0 0.00 0.02 0.00 64 1010.5
20260503070341 45 360 2.0 10.0 0.00 0.02 0.00 64 1010.6
20260503070120 45 351 5.0 10.0 0.00 0.02 0.00 63 1010.6
20260503060123 46 22 1.0 10.0 0.00 0.02 0.00 60 1011.0
20260503054848 47 360 3.0 10.0 0.00 0.02 0.00 60 1010.9
20260503054616 47 355 1.0 8.0 0.00 0.02 0.00 60 1011.0
20260503054542 47 360 1.0 8.0 0.00 0.02 0.00 59 1010.2
20260503054338 47 321 1.0 8.0 0.00 0.02 0.00 60 1010.9
20260503053849 47 348 4.0 8.0 0.00 0.02 0.00 59 1011.0
20260503053340 47 341 4.0 11.0 0.00 0.02 0.00 59 1011.1
20260503053106 47 323 4.0 11.0 0.00 0.02 0.00 59 1011.2
20260503053039 47 320 4.0 11.0 0.00 0.02 0.00 59 1010.4
20260503052847 47 30 4.0 8.0 0.00 0.02 0.00 60 1011.1
20260503052337 47 313 3.0 8.0 0.00 0.02 0.00 59 1011.1
20260503051846 48 281 1.0 6.0 0.00 0.02 0.00 60 1011.2
20260503051614 47 342 1.0 11.0 0.00 0.02 0.00 60 1011.3
20260503051540 47 29 3.0 11.0 0.00 0.02 0.00 59 1010.6
20260503051336 48 360 4.0 11.0 0.00 0.02 0.00 59 1011.2
20260503050846 48 16 4.0 11.0 0.00 0.02 0.00 60 1011.2
20260503050357 48 336 3.0 6.0 0.00 0.02 0.00 61 1011.3
20260503050122 47 28 2.0 5.0 0.00 0.02 0.00 60 1011.4
20260503050037 47 0 2.0 5.0 0.00 0.02 0.00 60 1010.7
20260503045843 48 17 2.0 4.0 0.00 0.02 0.00 61 1011.4
20260503045416 48 331 2.0 5.0 0.00 0.02 0.00 62 1011.4
20260503044843 48 350 2.0 5.0 0.00 0.02 0.00 61 1011.4
20260503044611 47 337 1.0 5.0 0.00 0.02 0.00 61 1011.5
20260503044537 47 13 1.0 5.0 0.00 0.02 0.00 60 1010.8
20260503044339 48 13 2.0 4.0 0.00 0.02 0.00 61 1011.4
20260503043904 48 313 1.0 4.0 0.00 0.02 0.00 62 1011.5
20260503043355 48 333 1.0 4.0 0.00 0.02 0.00 62 1011.6
20260503043118 47 20 0.0 2.0 0.00 0.02 0.00 65 1011.7
20260503043041 48 0 0.0 3.0 0.00 0.02 0.00 65 1011.0
20260503042844 48 13 0.0 3.0 0.00 0.02 0.00 64 1011.6
20260503042354 48 13 1.0 4.0 0.00 0.02 0.00 61 1011.6
20260503041842 48 355 2.0 7.0 0.00 0.02 0.00 64 1011.6
20260503041606 48 324 0.0 7.0 0.00 0.02 0.00 61 1011.7
20260503041542 48 0 2.0 7.0 0.00 0.02 0.00 60 1011.0
20260503041350 48 347 3.0 7.0 0.00 0.02 0.00 59 1011.6
20260503040841 49 22 2.0 5.0 0.00 0.02 0.00 59 1011.6
20260503040352 49 11 2.0 6.0 0.00 0.02 0.00 61 1011.6
20260503040111 48 337 0.0 6.0 0.00 0.02 0.00 61 1011.5
20260503040041 48 0 1.0 6.0 0.00 0.02 0.00 60 1010.8
20260503035858 49 280 3.0 6.0 0.00 0.02 0.02 61 1011.4
20260503035348 49 338 2.0 5.0 0.00 0.02 0.02 62 1011.3
20260503034838 49 9 1.0 6.0 0.00 0.02 0.02 60 1011.3
20260503034622 49 5 1.0 6.0 0.00 0.02 0.02 59 1011.4
20260503034539 49 360 1.0 7.0 0.00 0.02 0.02 59 1010.7
20260503034347 49 350 2.0 6.0 0.00 0.02 0.02 60 1011.3
20260503033839 50 298 2.0 6.0 0.00 0.02 0.02 58 1011.3
20260503033349 50 360 1.0 10.0 0.00 0.02 0.02 57 1011.4
20260503033114 49 360 2.0 10.0 0.00 0.02 0.02 57 1011.4
20260503033039 49 27 2.0 10.0 0.00 0.02 0.02 56 1010.7
20260503032836 50 346 2.0 10.0 0.00 0.02 0.02 57 1011.3
20260503032347 50 38 3.0 12.0 0.00 0.02 0.02 57 1011.2
20260503031838 50 35 3.0 12.0 0.00 0.02 0.02 56 1011.3
20260503031606 50 17 3.0 12.0 0.00 0.02 0.02 57 1011.3
20260503031541 50 338 3.0 9.0 0.00 0.02 0.02 56 1010.6
20260503031349 50 330 4.0 9.0 0.00 0.02 0.02 56 1011.2
20260503030839 50 292 2.0 6.0 0.00 0.02 0.02 58 1011.2
20260503030350 50 301 2.0 6.0 0.00 0.02 0.02 58 1011.2
20260503030115 50 350 1.0 3.0 0.00 0.02 0.02 58 1011.3
20260503025837 50 329 2.0 4.0 0.00 0.02 0.02 58 1011.3
20260503025347 50 309 2.0 4.0 0.00 0.02 0.02 58 1011.3
20260503024856 50 355 1.0 4.0 0.00 0.02 0.02 58 1011.2
20260503024604 50 345 1.0 4.0 0.00 0.02 0.02 58 1011.2
20260503024542 50 298 1.0 4.0 0.00 0.02 0.02 58 1010.7
20260503024407 50 5 2.0 4.0 0.00 0.02 0.02 58 1011.2
20260503023835 51 5 2.0 4.0 0.00 0.02 0.02 58 1011.2
20260503023345 51 18 2.0 4.0 0.00 0.02 0.02 58 1011.3
20260503023112 50 330 1.0 3.0 0.00 0.02 0.02 58 1011.3
20260503023039 50 315 1.0 4.0 0.00 0.02 0.02 58 1010.7
20260503022853 51 306 2.0 4.0 0.00 0.02 0.02 58 1011.3
20260503022343 51 51 1.0 4.0 0.00 0.02 0.02 57 1011.4
20260503021855 51 360 2.0 4.0 0.00 0.02 0.02 57 1011.4
20260503021541 51 0 1.0 3.0 0.00 0.02 0.02 57 1011.0
20260503021346 51 344 1.0 3.0 0.00 0.02 0.02 57 1011.5
20260503020837 51 321 1.0 3.0 0.00 0.02 0.02 56 1011.7
20260503020347 52 5 2.0 3.0 0.00 0.02 0.02 56 1011.6
20260503020112 51 5 0.0 3.0 0.00 0.02 0.02 56 1011.6
20260503020038 51 0 1.0 3.0 0.00 0.02 0.02 55 1011.0
20260503015853 52 336 1.0 3.0 0.00 0.02 0.02 56 1011.6
20260503015406 52 19 1.0 4.0 0.00 0.02 0.02 56 1011.7
20260503014855 52 313 1.0 4.0 0.00 0.02 0.02 55 1011.6
20260503014623 52 286 1.0 4.0 0.00 0.02 0.02 55 1011.6
20260503014547 52 0 1.0 3.0 0.00 0.02 0.02 54 1011.0
20260503014344 52 298 1.0 3.0 0.00 0.02 0.02 55 1011.5
20260503013838 52 318 1.0 4.0 0.00 0.02 0.02 54 1011.6
20260503013347 53 346 1.0 6.0 0.00 0.02 0.02 54 1011.6
20260503013108 52 32 1.0 6.0 0.00 0.02 0.02 54 1011.6
20260503013044 52 0 1.0 7.0 0.00 0.02 0.02 53 1011.0
20260503012855 53 5 2.0 6.0 0.00 0.02 0.02 53 1011.6
20260503012344 53 330 3.0 6.0 0.00 0.02 0.02 53 1011.4
20260503011854 53 333 2.0 5.0 0.00 0.02 0.02 52 1011.4
20260503011617 53 9 1.0 5.0 0.00 0.02 0.02 52 1011.5
20260503011548 53 348 2.0 6.0 0.00 0.02 0.02 51 1010.9
20260503011344 53 349 1.0 5.0 0.00 0.02 0.02 52 1011.4
20260503010854 53 343 2.0 6.0 0.00 0.02 0.02 51 1011.4
20260503010406 53 310 3.0 6.0 0.00 0.02 0.02 50 1011.3
20260503010123 53 313 2.0 5.0 0.00 0.02 0.02 50 1011.4
20260503010038 53 341 1.0 5.0 0.00 0.02 0.02 49 1010.7
20260503005851 53 300 2.0 5.0 0.00 0.02 0.02 49 1011.3
20260503005401 54 335 2.0 5.0 0.00 0.02 0.02 48 1011.2
20260503004851 54 306 1.0 4.0 0.00 0.02 0.02 49 1011.1
20260503004616 53 295 1.0 4.0 0.00 0.02 0.02 48 1011.2
20260503004539 53 309 1.0 4.0 0.00 0.02 0.02 48 1010.6
20260503004402 54 311 1.0 4.0 0.00 0.02 0.02 48 1011.1
20260503003846 54 301 2.0 4.0 0.00 0.02 0.02 47 1011.1
20260503003356 54 281 2.0 4.0 0.00 0.02 0.02 48 1011.1
20260503003120 53 325 1.0 3.0 0.00 0.02 0.02 49 1011.1
20260503003046 53 297 1.0 3.0 0.00 0.02 0.02 48 1010.5
20260503002843 54 325 1.0 3.0 0.00 0.02 0.02 48 1011.0
20260503002352 54 293 2.0 4.0 0.00 0.02 0.02 47 1011.0
20260503001842 54 294 2.0 4.0 0.00 0.02 0.02 49 1011.0
20260503001609 54 290 1.0 7.0 0.00 0.02 0.02 47 1011.0
20260503001536 54 355 1.0 7.0 0.00 0.02 0.02 46 1010.6
20260503001351 55 297 2.0 7.0 0.00 0.02 0.02 47 1011.0
20260503000841 55 290 3.0 7.0 0.00 0.02 0.02 47 1010.9
20260503000415 55 279 2.0 8.0 0.00 0.02 0.02 46 1010.9
20260503000117 54 304 2.0 8.0 0.00 0.02 0.02 46 1011.0
20260503000041 55 345 2.0 8.0 0.00 0.02 0.02 46 1010.4
20260502235840 55 294 2.0 8.0 0.00 0.02 0.02 47 1010.9
20260502235349 55 315 2.0 8.0 0.00 0.02 0.02 48 1010.8
20260502234840 56 309 3.0 8.0 0.00 0.02 0.02 47 1010.8
20260502234608 55 332 2.0 8.0 0.00 0.02 0.02 48 1010.8
20260502234539 55 286 1.0 4.0 0.00 0.02 0.02 47 1010.3
20260502234351 56 263 2.0 4.0 0.00 0.02 0.02 46 1010.7
20260502233841 56 298 1.0 3.0 0.00 0.02 0.02 48 1010.5
20260502233353 57 307 1.0 4.0 0.00 0.02 0.02 45 1010.6
20260502233119 56 20 1.0 4.0 0.00 0.02 0.02 45 1010.6
20260502233040 56 0 1.0 4.0 0.00 0.02 0.02 44 1010.1
20260502232840 57 290 2.0 4.0 0.00 0.02 0.02 44 1010.5
20260502232351 57 292 1.0 4.0 0.00 0.02 0.02 46 1010.5
20260502231840 57 302 1.0 4.0 0.00 0.02 0.02 45 1010.5
20260502231609 57 311 1.0 6.0 0.00 0.02 0.02 46 1010.4
20260502231539 57 286 1.0 6.0 0.00 0.02 0.02 46 1009.9
20260502231350 58 279 2.0 6.0 0.00 0.02 0.02 45 1010.4
20260502230839 58 303 3.0 8.0 0.00 0.02 0.02 44 1010.3
20260502230350 58 279 2.0 8.0 0.00 0.02 0.02 45 1010.3
20260502230115 58 360 2.0 8.0 0.00 0.02 0.02 44 1010.4
20260502230035 58 334 3.0 8.0 0.00 0.02 0.02 45 1009.9
20260502225837 58 5 3.0 6.0 0.00 0.02 0.02 46 1010.3
20260502225347 58 284 2.0 5.0 0.00 0.02 0.02 45 1010.3
20260502224842 58 279 1.0 7.0 0.00 0.02 0.02 47 1010.2
20260502224618 58 5 1.0 7.0 0.00 0.02 0.02 46 1010.2
20260502224542 58 348 0.0 7.0 0.00 0.02 0.02 45 1009.7
20260502224353 58 11 0.0 7.0 0.00 0.02 0.02 47 1010.2
20260502223843 58 340 2.0 5.0 0.00 0.02 0.02 47 1010.2
20260502223413 58 23 2.0 4.0 0.00 0.02 0.02 47 1010.2
20260502223040 57 309 0.0 5.0 0.00 0.02 0.02 46 1009.7
20260502223002 57 329 0.0 5.0 0.00 0.02 0.02 46 1010.2
20260502222901 58 292 1.0 5.0 0.00 0.02 0.02 48 1010.2
20260502222351 58 355 2.0 5.0 0.00 0.02 0.02 47 1010.2
20260502221901 58 314 3.0 5.0 0.00 0.02 0.02 47 1010.2
20260502221603 58 297 1.0 5.0 0.00 0.02 0.02 46 1010.2
20260502221540 58 34 2.0 5.0 0.00 0.02 0.02 46 1009.7
20260502221350 58 305 3.0 5.0 0.00 0.02 0.02 46 1010.2
20260502220838 59 317 3.0 8.0 0.00 0.02 0.02 47 1010.2
20260502220350 59 355 2.0 8.0 0.00 0.02 0.02 46 1010.0
20260502220111 58 274 3.0 8.0 0.00 0.02 0.02 47 1010.1
20260502220041 58 287 1.0 7.0 0.00 0.02 0.02 47 1009.6
20260502215838 59 284 3.0 7.0 0.00 0.02 0.02 46 1010.1
20260502215347 59 19 3.0 6.0 0.00 0.02 0.02 45 1010.0
20260502214837 60 338 2.0 8.0 0.00 0.02 0.02 45 1010.1
20260502214634 59 272 3.0 9.0 0.00 0.02 0.02 46 1010.1
20260502214538 59 275 2.0 9.0 0.00 0.02 0.02 45 1009.5
20260502214409 60 311 2.0 9.0 0.00 0.02 0.02 44 1010.1
20260502213839 60 325 3.0 9.0 0.00 0.02 0.02 45 1010.0
20260502213350 60 41 2.0 13.0 0.00 0.02 0.02 46 1010.0
20260502213111 60 287 5.0 13.0 0.00 0.02 0.02 45 1010.0
20260502213045 60 302 5.0 13.0 0.00 0.02 0.02 45 1009.5
20260502212836 60 279 5.0 11.0 0.00 0.02 0.02 44 1009.9
20260502212346 61 286 4.0 11.0 0.00 0.02 0.02 46 1009.9
20260502211836 61 41 1.0 6.0 0.00 0.02 0.02 49 1009.9
20260502211608 60 335 3.0 6.0 0.00 0.02 0.02 49 1009.9
20260502211545 60 294 1.0 6.0 0.00 0.02 0.02 49 1009.3
20260502211347 61 298 1.0 6.0 0.00 0.02 0.02 51 1009.8
20260502210837 60 281 3.0 6.0 0.00 0.02 0.02 51 1009.8
20260502210349 60 40 1.0 9.0 0.00 0.02 0.02 45 1009.8
20260502210112 60 243 3.0 9.0 0.00 0.02 0.02 47 1009.8
20260502210039 60 34 3.0 9.0 0.00 0.02 0.02 47 1009.3
20260502205915 60 292 3.0 9.0 0.00 0.02 0.02 51 1009.8
20260502205406 60 282 4.0 11.0 0.00 0.02 0.02 54 1009.8
20260502204856 60 11 3.0 11.0 0.00 0.02 0.02 51 1009.8
20260502204622 60 348 5.0 11.0 0.00 0.02 0.02 51 1009.8
20260502204538 60 5 3.0 9.0 0.00 0.02 0.02 52 1009.2
20260502204343 60 5 3.0 9.0 0.00 0.02 0.02 54 1009.8
20260502203854 60 282 2.0 9.0 0.00 0.02 0.02 51 1009.9
20260502203346 60 300 2.0 7.0 0.00 0.02 0.02 48 1009.9
20260502203110 60 30 2.0 5.0 0.00 0.02 0.02 51 1009.9
20260502203059 60 300 2.0 6.0 0.00 0.02 0.02 49 1009.3
20260502202853 60 313 3.0 5.0 0.00 0.02 0.02 49 1009.9
20260502202343 60 248 4.0 10.0 0.00 0.02 0.02 50 1010.0
20260502201855 60 53 4.0 10.0 0.00 0.02 0.02 52 1010.1
20260502201621 59 351 4.0 10.0 0.00 0.02 0.02 53 1010.2
20260502201536 59 5 3.0 8.0 0.00 0.02 0.02 52 1009.6
20260502201346 60 350 3.0 8.0 0.00 0.02 0.02 53 1010.2
20260502200836 60 344 4.0 9.0 0.00 0.02 0.02 51 1010.2
20260502200348 60 319 4.0 9.0 0.00 0.02 0.02 55 1010.2
20260502200115 59 284 3.0 8.0 0.00 0.02 0.02 54 1010.2
20260502200043 59 291 3.0 8.0 0.00 0.02 0.02 54 1009.6
20260502195836 59 257 3.0 4.0 0.00 0.02 0.02 55 1010.3
20260502195346 59 55 2.0 6.0 0.00 0.02 0.02 56 1010.4
20260502194856 59 219 3.0 6.0 0.00 0.02 0.02 55 1010.4
20260502194604 58 310 2.0 5.0 0.00 0.02 0.02 55 1010.5
20260502194541 58 310 2.0 7.0 0.00 0.02 0.02 53 1009.9
20260502194346 59 293 2.0 7.0 0.00 0.02 0.02 54 1010.5
20260502193840 59 342 4.0 7.0 0.00 0.02 0.02 53 1010.6
20260502193350 59 9 3.0 8.0 0.00 0.02 0.02 58 1010.7
20260502193128 58 323 2.0 8.0 0.00 0.02 0.02 57 1010.8
20260502193040 58 360 1.0 8.0 0.00 0.02 0.02 55 1010.1
20260502192855 58 52 2.0 8.0 0.00 0.02 0.02 58 1010.7